Time,TemperatureF,DewpointF,PressureIn,WindDirection,WindDirectionDegrees,WindSpeedMPH,WindSpeedGustMPH,Humidity,HourlyPrecipIn,Conditions,Clouds,dailyrainin,SoftwareType,DateUTC
2013-04-23 00:00:00,26.0,12.0,-100.00,West,280,15.0,20.0,55,-99.99,,,-99.99,,2013-04-23 07:00:00,
2013-04-23 01:00:00,27.0,11.0,-100.00,WNW,294,17.0,21.0,50,-99.99,,,-99.99,,2013-04-23 08:00:00,
2013-04-23 02:00:00,26.0,0.0,-100.00,WNW,291,15.0,17.0,32,-99.99,,,-99.99,,2013-04-23 09:00:00,
2013-04-23 03:00:00,27.0,-2.0,-100.00,WNW,290,17.0,20.0,27,-99.99,,,-99.99,,2013-04-23 10:00:00,
2013-04-23 04:00:00,27.0,-4.0,-100.00,West,273,17.0,20.0,25,-99.99,,,-99.99,,2013-04-23 11:00:00,
2013-04-23 05:00:00,28.0,-6.0,-100.00,West,280,20.0,23.0,22,-99.99,,,-99.99,,2013-04-23 12:00:00,
2013-04-23 06:00:00,26.0,-3.0,-100.00,WNW,282,20.0,21.0,27,-99.99,,,-99.99,,2013-04-23 13:00:00,
2013-04-23 07:00:00,29.0,-6.0,-100.00,West,277,22.0,27.0,21,-99.99,,,-99.99,,2013-04-23 14:00:00,
2013-04-23 08:00:00,27.0,0.0,-100.00,WNW,284,20.0,25.0,30,-99.99,,,-99.99,,2013-04-23 15:00:00,
2013-04-23 09:00:00,28.0,3.0,-100.00,WNW,289,17.0,21.0,33,-99.99,,,-99.99,,2013-04-23 16:00:00,
2013-04-23 10:00:00,29.0,8.0,-100.00,West,280,15.0,22.0,40,-99.99,,,-99.99,,2013-04-23 17:00:00,
2013-04-23 11:00:00,30.0,11.0,-100.00,WNW,294,15.0,23.0,44,-99.99,,,-99.99,,2013-04-23 18:00:00,
2013-04-23 12:00:00,29.0,16.0,-100.00,WNW,298,17.0,23.0,58,-99.99,,,-99.99,,2013-04-23 19:00:00,
2013-04-23 13:00:00,30.0,21.0,-100.00,WNW,295,13.0,21.0,69,-99.99,,,-99.99,,2013-04-23 20:00:00,
2013-04-23 14:00:00,31.0,23.0,-100.00,WSW,247,14.0,20.0,72,-99.99,,,-99.99,,2013-04-23 21:00:00,
2013-04-23 15:00:00,33.0,21.0,-100.00,WNW,285,12.0,20.0,61,-99.99,,,-99.99,,2013-04-23 22:00:00,
2013-04-23 16:00:00,35.0,22.0,-100.00,NNW,339,7.0,18.0,58,-99.99,,,-99.99,,2013-04-23 23:00:00,
2013-04-23 17:00:00,37.0,24.0,-100.00,South,169,5.0,13.0,58,-99.99,,,-99.99,,2013-04-24 00:00:00,
2013-04-23 18:00:00,43.0,23.0,-100.00,NNE,27,3.0,9.0,45,-99.99,,,-99.99,,2013-04-24 01:00:00,
2013-04-23 19:00:00,42.0,23.0,-100.00,NE,45,6.0,10.0,47,-99.99,,,-99.99,,2013-04-24 02:00:00,
2013-04-23 20:00:00,35.0,22.0,-100.00,ENE,62,9.0,17.0,59,-99.99,,,-99.99,,2013-04-24 03:00:00,
2013-04-23 21:00:00,31.0,22.0,-100.00,East,84,14.0,20.0,68,-99.99,,,-99.99,,2013-04-24 04:00:00,
2013-04-23 22:00:00,31.0,21.0,-100.00,East,87,14.0,23.0,66,-99.99,,,-99.99,,2013-04-24 05:00:00,
2013-04-23 23:00:00,31.0,19.0,-100.00,East,82,14.0,23.0,60,-99.99,,,-99.99,,2013-04-24 06:00:00,